Time,TemperatureF,DewpointF,PressureIn,WindDirection,WindDirectionDegrees,WindSpeedMPH,WindSpeedGustMPH,Humidity,HourlyPrecipIn,Conditions,Clouds,dailyrainin,SoftwareType,DateUTC
2013-05-26 00:00:00,56.0,47.0,29.91,North,-999,0.0,0.0,73,0.00,,,-99.99,,2013-05-26 07:00:00,
2013-05-26 00:01:00,56.0,49.0,29.91,North,-999,0.0,0.0,76,0.00,,,-99.99,,2013-05-26 07:01:00,
2013-05-26 00:11:00,56.0,46.0,29.91,North,-999,0.0,0.0,68,0.00,,,-99.99,,2013-05-26 07:11:00,
2013-05-26 00:21:00,56.0,47.0,29.91,North,-999,0.0,0.0,73,0.00,,,-99.99,,2013-05-26 07:21:00,
2013-05-26 00:42:00,56.0,47.0,29.91,North,-999,0.0,0.0,73,0.00,,,-99.99,,2013-05-26 07:42:00,
2013-05-26 00:52:00,56.0,47.0,29.91,North,-999,0.0,0.0,73,0.00,,,-99.99,,2013-05-26 07:52:00,
2013-05-26 01:32:00,56.0,46.0,29.91,North,-999,0.0,0.0,70,0.00,,,-99.99,,2013-05-26 08:32:00,
2013-05-26 01:42:00,56.0,46.0,29.91,North,-999,0.0,0.0,70,0.00,,,-99.99,,2013-05-26 08:42:00,
2013-05-26 01:53:00,56.0,46.0,29.91,North,-999,0.0,0.0,70,0.00,,,-99.99,,2013-05-26 08:53:00,
2013-05-26 02:01:00,56.0,47.0,29.91,North,-999,0.0,0.0,71,0.00,,,-99.99,,2013-05-26 09:01:00,
2013-05-26 02:11:00,55.0,47.0,29.91,North,-999,0.0,0.0,73,0.00,,,-99.99,,2013-05-26 09:11:00,
2013-05-26 02:42:00,54.0,47.0,29.90,North,-999,0.0,0.0,76,0.00,,,-99.99,,2013-05-26 09:42:00,
2013-05-26 02:53:00,54.0,46.0,29.90,North,-999,0.0,0.0,75,0.00,,,-99.99,,2013-05-26 09:53:00,
2013-05-26 03:02:00,54.0,46.0,29.90,North,-999,0.0,0.0,75,0.00,,,-99.99,,2013-05-26 10:02:00,
2013-05-26 03:12:00,54.0,47.0,29.90,North,-999,0.0,0.0,77,0.00,,,-99.99,,2013-05-26 10:12:00,
2013-05-26 03:22:00,53.0,46.0,29.90,North,-999,0.0,0.0,78,0.00,,,-99.99,,2013-05-26 10:22:00,
2013-05-26 03:42:00,52.0,45.0,29.90,North,0,0.0,1.0,78,0.00,,,-99.99,,2013-05-26 10:42:00,
2013-05-26 03:52:00,52.0,46.0,29.89,North,-999,0.0,0.0,79,0.00,,,-99.99,,2013-05-26 10:52:00,
2013-05-26 04:22:00,51.0,46.0,29.90,North,0,0.0,1.0,82,0.00,,,-99.99,,2013-05-26 11:22:00,
2013-05-26 04:32:00,51.0,46.0,29.90,North,0,0.0,1.0,82,0.00,,,-99.99,,2013-05-26 11:32:00,
2013-05-26 04:52:00,50.0,45.0,29.90,North,-999,0.0,0.0,84,0.00,,,-99.99,,2013-05-26 11:52:00,
2013-05-26 05:01:00,50.0,45.0,29.90,North,-999,0.0,0.0,84,0.00,,,-99.99,,2013-05-26 12:01:00,
2013-05-26 05:11:00,50.0,46.0,29.90,North,0,0.0,1.0,85,0.00,,,-99.99,,2013-05-26 12:11:00,
2013-05-26 05:21:00,50.0,46.0,29.90,North,0,0.0,1.0,85,0.00,,,-99.99,,2013-05-26 12:21:00,
2013-05-26 05:41:00,51.0,47.0,29.89,North,0,0.0,1.0,87,0.00,,,-99.99,,2013-05-26 12:41:00,
2013-05-26 05:52:00,51.0,47.0,29.89,North,0,0.0,1.0,87,0.00,,,-99.99,,2013-05-26 12:52:00,
2013-05-26 06:02:00,50.0,47.0,29.90,North,0,0.0,1.0,89,0.00,,,-99.99,,2013-05-26 13:02:00,
2013-05-26 06:11:00,50.0,47.0,29.90,North,0,0.0,1.0,89,0.00,,,-99.99,,2013-05-26 13:11:00,
2013-05-26 06:21:00,50.0,47.0,29.90,North,0,0.0,1.0,89,0.00,,,-99.99,,2013-05-26 13:21:00,
2013-05-26 06:32:00,50.0,46.0,29.91,North,-999,0.0,0.0,85,0.00,,,-99.99,,2013-05-26 13:32:00,
2013-05-26 06:42:00,51.0,46.0,29.91,North,-999,0.0,0.0,84,0.00,,,-99.99,,2013-05-26 13:42:00,
2013-05-26 06:52:00,51.0,46.0,29.91,North,-999,0.0,0.0,83,0.00,,,-99.99,,2013-05-26 13:52:00,
2013-05-26 07:01:00,51.0,46.0,29.91,North,-999,0.0,0.0,83,0.00,,,-99.99,,2013-05-26 14:01:00,
2013-05-26 07:11:00,52.0,46.0,29.92,North,-999,0.0,0.0,81,0.00,,,-99.99,,2013-05-26 14:11:00,
2013-05-26 07:21:00,52.0,46.0,29.92,North,-999,0.0,0.0,81,0.00,,,-99.99,,2013-05-26 14:21:00,
2013-05-26 07:32:00,53.0,47.0,29.93,North,-999,0.0,0.0,79,0.00,,,-99.99,,2013-05-26 14:32:00,
2013-05-26 07:41:00,53.0,47.0,29.93,North,0,0.0,1.0,79,0.00,,,-99.99,,2013-05-26 14:41:00,
2013-05-26 08:01:00,54.0,47.0,29.94,North,-999,0.0,0.0,78,0.00,,,-99.99,,2013-05-26 15:01:00,
2013-05-26 08:11:00,54.0,47.0,29.94,North,-999,0.0,0.0,78,0.00,,,-99.99,,2013-05-26 15:11:00,
2013-05-26 08:22:00,54.0,47.0,29.94,North,-999,0.0,0.0,78,0.00,,,-99.99,,2013-05-26 15:22:00,
2013-05-26 08:33:00,55.0,47.0,29.95,North,-999,0.0,0.0,75,0.00,,,-99.99,,2013-05-26 15:33:00,
2013-05-26 08:43:00,55.0,49.0,29.96,North,0,0.0,1.0,79,0.00,,,-99.99,,2013-05-26 15:43:00,
2013-05-26 08:53:00,55.0,49.0,29.96,North,0,0.0,1.0,79,0.00,,,-99.99,,2013-05-26 15:53:00,
2013-05-26 09:03:00,55.0,49.0,29.96,North,-999,0.0,0.0,79,0.00,,,-99.99,,2013-05-26 16:03:00,
2013-05-26 09:12:00,55.0,48.0,29.97,North,0,0.0,1.0,78,0.00,,,-99.99,,2013-05-26 16:12:00,
2013-05-26 09:23:00,55.0,48.0,29.97,North,0,0.0,1.0,78,0.00,,,-99.99,,2013-05-26 16:23:00,
2013-05-26 09:33:00,56.0,49.0,29.97,North,0,0.0,1.0,76,0.00,,,-99.99,,2013-05-26 16:33:00,
2013-05-26 09:42:00,57.0,50.0,29.97,North,0,0.0,2.0,76,0.00,,,-99.99,,2013-05-26 16:42:00,
2013-05-26 09:53:00,57.0,49.0,29.97,WSW,240,2.0,2.0,75,0.00,,,-99.99,,2013-05-26 16:53:00,
2013-05-26 10:02:00,57.0,49.0,29.97,WSW,240,2.0,2.0,75,0.00,,,-99.99,,2013-05-26 17:02:00,
2013-05-26 10:11:00,58.0,50.0,29.96,North,0,0.0,6.0,75,0.00,,,-99.99,,2013-05-26 17:11:00,
2013-05-26 10:22:00,58.0,50.0,29.96,North,0,0.0,6.0,75,0.00,,,-99.99,,2013-05-26 17:22:00,
2013-05-26 10:32:00,60.0,51.0,29.96,North,0,0.0,1.0,71,0.00,,,-99.99,,2013-05-26 17:32:00,
2013-05-26 10:42:00,61.0,50.0,29.96,SW,230,3.0,6.0,68,0.00,,,-99.99,,2013-05-26 17:42:00,
2013-05-26 10:52:00,61.0,50.0,29.96,SW,230,3.0,6.0,68,0.00,,,-99.99,,2013-05-26 17:52:00,
2013-05-26 11:01:00,60.0,50.0,29.97,North,0,0.0,1.0,70,0.00,,,-99.99,,2013-05-26 18:01:00,
2013-05-26 11:12:00,61.0,51.0,29.97,North,0,0.0,6.0,69,0.00,,,-99.99,,2013-05-26 18:12:00,
2013-05-26 11:21:00,61.0,51.0,29.97,North,0,0.0,6.0,69,0.00,,,-99.99,,2013-05-26 18:21:00,
2013-05-26 11:31:00,61.0,51.0,29.97,SW,230,1.0,7.0,69,0.00,,,-99.99,,2013-05-26 18:31:00,
2013-05-26 11:42:00,62.0,52.0,29.97,North,0,0.0,7.0,70,0.00,,,-99.99,,2013-05-26 18:42:00,
2013-05-26 11:52:00,62.0,52.0,29.97,SW,220,3.0,6.0,70,0.00,,,-99.99,,2013-05-26 18:52:00,
2013-05-26 12:01:00,62.0,52.0,29.97,SW,220,3.0,6.0,70,0.00,,,-99.99,,2013-05-26 19:01:00,
2013-05-26 12:11:00,62.0,52.0,29.96,North,0,0.0,8.0,70,0.00,,,-99.99,,2013-05-26 19:11:00,
2013-05-26 12:21:00,62.0,52.0,29.96,North,0,0.0,8.0,70,0.00,,,-99.99,,2013-05-26 19:21:00,
2013-05-26 12:31:00,60.0,51.0,29.96,SW,220,10.0,11.0,72,0.00,,,-99.99,,2013-05-26 19:31:00,
2013-05-26 12:42:00,59.0,51.0,29.97,North,0,0.0,11.0,75,0.00,,,-99.99,,2013-05-26 19:42:00,
2013-05-26 12:52:00,59.0,51.0,29.97,North,0,0.0,11.0,75,0.00,,,-99.99,,2013-05-26 19:52:00,
2013-05-26 13:02:00,60.0,51.0,29.97,SSW,210,5.0,8.0,73,0.00,,,-99.99,,2013-05-26 20:02:00,
2013-05-26 13:11:00,61.0,52.0,29.97,SSW,210,4.0,9.0,71,0.00,,,-99.99,,2013-05-26 20:11:00,
2013-05-26 13:21:00,61.0,52.0,29.97,SSW,210,4.0,9.0,71,0.00,,,-99.99,,2013-05-26 20:21:00,
2013-05-26 13:32:00,61.0,52.0,29.97,SSW,210,3.0,5.0,71,0.00,,,-99.99,,2013-05-26 20:32:00,
2013-05-26 13:41:00,61.0,51.0,29.97,SSW,210,3.0,7.0,70,0.00,,,-99.99,,2013-05-26 20:41:00,
2013-05-26 13:52:00,61.0,51.0,29.97,SSW,210,3.0,7.0,70,0.00,,,-99.99,,2013-05-26 20:52:00,
2013-05-26 14:01:00,61.0,51.0,29.97,SSW,210,2.0,5.0,69,0.00,,,-99.99,,2013-05-26 21:01:00,
2013-05-26 14:11:00,62.0,51.0,29.97,SSW,210,5.0,7.0,68,0.00,,,-99.99,,2013-05-26 21:11:00,
2013-05-26 14:22:00,62.0,51.0,29.97,SSW,210,5.0,7.0,68,0.00,,,-99.99,,2013-05-26 21:22:00,
2013-05-26 14:33:00,62.0,52.0,29.97,SSW,210,3.0,7.0,69,0.00,,,-99.99,,2013-05-26 21:33:00,
2013-05-26 14:43:00,62.0,51.0,29.97,SSW,210,3.0,7.0,67,0.00,,,-99.99,,2013-05-26 21:43:00,
2013-05-26 14:53:00,62.0,51.0,29.97,SSW,210,3.0,7.0,67,0.00,,,-99.99,,2013-05-26 21:53:00,
2013-05-26 15:02:00,63.0,51.0,29.97,SSW,210,2.0,7.0,66,0.00,,,-99.99,,2013-05-26 22:02:00,
2013-05-26 15:12:00,63.0,51.0,29.97,SSW,210,2.0,7.0,66,0.00,,,-99.99,,2013-05-26 22:12:00,
2013-05-26 15:23:00,62.0,51.0,29.97,SSW,210,4.0,8.0,67,0.00,,,-99.99,,2013-05-26 22:23:00,
2013-05-26 15:33:00,62.0,51.0,29.97,SSW,210,4.0,8.0,67,0.00,,,-99.99,,2013-05-26 22:33:00,
2013-05-26 15:42:00,62.0,51.0,29.97,SSW,210,4.0,8.0,67,0.00,,,-99.99,,2013-05-26 22:42:00,
2013-05-26 15:53:00,62.0,50.0,29.96,SSW,210,4.0,9.0,65,0.00,,,-99.99,,2013-05-26 22:53:00,
2013-05-26 16:02:00,63.0,51.0,29.96,SSW,210,4.0,9.0,64,0.00,,,-99.99,,2013-05-26 23:02:00,
2013-05-26 16:11:00,63.0,51.0,29.96,SSW,210,4.0,9.0,64,0.00,,,-99.99,,2013-05-26 23:11:00,
2013-05-26 16:22:00,63.0,51.0,29.96,SSW,210,4.0,9.0,64,0.00,,,-99.99,,2013-05-26 23:22:00,
2013-05-26 16:32:00,62.0,50.0,29.95,SSW,210,4.0,6.0,65,0.00,,,-99.99,,2013-05-26 23:32:00,
2013-05-26 16:42:00,63.0,51.0,29.95,SW,220,5.0,7.0,65,0.00,,,-99.99,,2013-05-26 23:42:00,
2013-05-26 16:52:00,63.0,51.0,29.95,SW,220,5.0,7.0,65,0.00,,,-99.99,,2013-05-26 23:52:00,
2013-05-26 17:02:00,63.0,51.0,29.94,North,0,0.0,3.0,64,0.00,,,-99.99,,2013-05-27 00:02:00,
2013-05-26 17:11:00,64.0,51.0,29.93,North,0,0.0,6.0,62,0.00,,,-99.99,,2013-05-27 00:11:00,
2013-05-26 17:21:00,64.0,51.0,29.93,North,0,0.0,6.0,62,0.00,,,-99.99,,2013-05-27 00:21:00,
2013-05-26 17:31:00,64.0,51.0,29.93,North,0,0.0,6.0,62,0.00,,,-99.99,,2013-05-27 00:31:00,
2013-05-26 17:41:00,64.0,51.0,29.93,North,0,0.0,6.0,62,0.00,,,-99.99,,2013-05-27 00:41:00,
2013-05-26 18:01:00,64.0,50.0,29.93,North,0,0.0,1.0,61,0.00,,,-99.99,,2013-05-27 01:01:00,
2013-05-26 18:11:00,64.0,50.0,29.92,North,0,0.0,2.0,61,0.00,,,-99.99,,2013-05-27 01:11:00,
2013-05-26 18:22:00,64.0,50.0,29.92,North,0,0.0,2.0,61,0.00,,,-99.99,,2013-05-27 01:22:00,
2013-05-26 18:31:00,64.0,51.0,29.92,North,0,0.0,1.0,62,0.00,,,-99.99,,2013-05-27 01:31:00,
2013-05-26 18:42:00,64.0,50.0,29.92,North,0,0.0,4.0,61,0.00,,,-99.99,,2013-05-27 01:42:00,
2013-05-26 18:52:00,64.0,50.0,29.92,North,0,0.0,4.0,61,0.00,,,-99.99,,2013-05-27 01:52:00,
2013-05-26 19:01:00,64.0,50.0,29.91,North,-999,0.0,0.0,61,0.00,,,-99.99,,2013-05-27 02:01:00,
2013-05-26 19:11:00,64.0,50.0,29.91,North,0,0.0,1.0,61,0.00,,,-99.99,,2013-05-27 02:11:00,
2013-05-26 19:21:00,64.0,50.0,29.91,North,0,0.0,1.0,61,0.00,,,-99.99,,2013-05-27 02:21:00,
2013-05-26 19:32:00,63.0,50.0,29.91,North,-999,0.0,0.0,62,0.00,,,-99.99,,2013-05-27 02:32:00,
2013-05-26 19:42:00,63.0,50.0,29.91,North,-999,0.0,0.0,62,0.00,,,-99.99,,2013-05-27 02:42:00,
2013-05-26 19:52:00,63.0,50.0,29.91,North,-999,0.0,0.0,62,0.00,,,-99.99,,2013-05-27 02:52:00,
2013-05-26 20:02:00,62.0,50.0,29.90,North,-999,0.0,0.0,65,0.00,,,-99.99,,2013-05-27 03:02:00,
2013-05-26 20:11:00,59.0,49.0,29.90,North,0,0.0,4.0,70,0.00,,,-99.99,,2013-05-27 03:11:00,
2013-05-26 20:21:00,59.0,49.0,29.90,North,0,0.0,4.0,70,0.00,,,-99.99,,2013-05-27 03:21:00,
2013-05-26 20:33:00,58.0,49.0,29.91,North,-999,0.0,0.0,73,0.00,,,-99.99,,2013-05-27 03:33:00,
2013-05-26 20:42:00,58.0,49.0,29.91,North,-999,0.0,0.0,73,0.00,,,-99.99,,2013-05-27 03:42:00,
2013-05-26 20:53:00,56.0,49.0,29.92,WNW,290,3.0,3.0,77,0.00,,,-99.99,,2013-05-27 03:53:00,
2013-05-26 21:02:00,56.0,49.0,29.92,WNW,290,3.0,3.0,77,0.00,,,-99.99,,2013-05-27 04:02:00,
2013-05-26 21:12:00,56.0,49.0,29.92,WNW,300,3.0,5.0,77,0.00,,,-99.99,,2013-05-27 04:12:00,
2013-05-26 21:22:00,56.0,49.0,29.92,WNW,300,3.0,5.0,77,0.00,,,-99.99,,2013-05-27 04:22:00,
2013-05-26 21:33:00,56.0,49.0,29.92,NW,310,2.0,3.0,77,0.00,,,-99.99,,2013-05-27 04:33:00,
2013-05-26 21:42:00,56.0,49.0,29.92,NW,310,2.0,3.0,77,0.00,,,-99.99,,2013-05-27 04:42:00,
2013-05-26 21:52:00,57.0,50.0,29.91,North,-999,0.0,0.0,76,0.00,,,-99.99,,2013-05-27 04:52:00,
2013-05-26 22:02:00,57.0,50.0,29.91,North,-999,0.0,0.0,76,0.00,,,-99.99,,2013-05-27 05:02:00,
2013-05-26 22:12:00,58.0,50.0,29.91,North,0,0.0,1.0,75,0.00,,,-99.99,,2013-05-27 05:12:00,
2013-05-26 22:22:00,58.0,50.0,29.91,North,-999,0.0,0.0,75,0.00,,,-99.99,,2013-05-27 05:22:00,
2013-05-26 22:32:00,58.0,50.0,29.91,North,-999,0.0,0.0,75,0.00,,,-99.99,,2013-05-27 05:32:00,
2013-05-26 22:42:00,58.0,50.0,29.91,North,0,0.0,1.0,75,0.00,,,-99.99,,2013-05-27 05:42:00,
2013-05-26 22:52:00,57.0,50.0,29.92,North,-999,0.0,0.0,76,0.00,,,-99.99,,2013-05-27 05:52:00,
2013-05-26 23:01:00,57.0,50.0,29.92,North,-999,0.0,0.0,76,0.00,,,-99.99,,2013-05-27 06:01:00,
2013-05-26 23:11:00,58.0,49.0,29.91,North,0,0.0,1.0,73,0.00,,,-99.99,,2013-05-27 06:11:00,
2013-05-26 23:21:00,58.0,49.0,29.91,North,-999,0.0,0.0,72,0.00,,,-99.99,,2013-05-27 06:21:00,
2013-05-26 23:31:00,58.0,49.0,29.91,North,-999,0.0,0.0,72,0.00,,,-99.99,,2013-05-27 06:31:00,
2013-05-26 23:41:00,58.0,49.0,29.90,North,0,0.0,1.0,71,0.00,,,-99.99,,2013-05-27 06:41:00,
2013-05-26 23:52:00,58.0,49.0,29.90,WSW,240,1.0,1.0,71,0.00,,,-99.99,,2013-05-27 06:52:00,